Punta Gorda, FL

9:28 AM EDT on April 22, 2018 (GMT -0400)
Charlotte County

Weather History for KPGD - June, 2013

Change the Weather History Date:

Saturday, June 29, 2013

  Actual Average Record
Temperature  
Mean Temperature 82 °F -  
Max Temperature 91 °F 89 °F 98 °F (2014)
Min Temperature 75 °F 70 °F 70 °F (2007)
Cooling Degree Days 18    
Growing Degree Days 32 (Base 50)    
Moisture  
Dew Point 74 °F    
Average Humidity 79    
Maximum Humidity 94    
Minimum Humidity 57    
Precipitation  
Precipitation 0.10 in - - ()
Sea Level Pressure  
Sea Level Pressure 29.89 in    
Wind  
Wind Speed 8 mph (SSW)    
Max Wind Speed 16 mph    
Max Gust Speed 21 mph    
Visibility 10 miles    
Events Rain , Thunderstorm    
Averages and records for this station are not official NWS values.
T = Trace of Precipitation, MM = Missing Value Source: NWS Daily Summary

Daily Weather History Graph

Daily Weather History Graph

Search for Another Location

Airport or City:

Astronomy

Jun. 29, 2013 Rise Set
Actual Time 6:36 AM EDT 8:25 PM EDT
Civil Twilight 6:10 AM EDT 8:52 PM EDT
Nautical Twilight 5:38 AM EDT 9:23 PM EDT
Astronomical Twilight 5:05 AM EDT 9:57 PM EDT
Moon 12:31 AM EDT (6/29) 1:06 PM EDT (6/29)
Length of Visible Light 14h 41m
Length of Day
13h 48m
Waning Gibbous, 56% of the Moon is Illuminated
Jun 29
Waning Gibbous
Jun 30
Last Quarter
Jul 8
New
Jul 15
First Quarter
Jul 22
Full

Hourly Weather History & Observations

Time (EDT) Temp. Heat Index Dew Point Humidity Pressure Visibility Wind Dir Wind Speed Gust Speed Precip Events Conditions
12:53 AM 78.1 °F - 75.0 °F 90% 29.91 in 10.0 mi South 5.8 mph - N/A   Clear
1:53 AM 78.1 °F - 75.0 °F 90% 29.91 in 10.0 mi South 3.5 mph - N/A   Clear
2:53 AM 77.0 °F - 73.9 °F 90% 29.89 in 10.0 mi SE 4.6 mph - N/A   Clear
3:53 AM 77.0 °F - 75.0 °F 94% 29.89 in 10.0 mi SSE 5.8 mph - N/A   Clear
4:53 AM 77.0 °F - 75.0 °F 94% 29.90 in 10.0 mi SSE 4.6 mph - N/A   Partly Cloudy
5:53 AM 77.0 °F - 75.0 °F 94% 29.90 in 10.0 mi SSE 3.5 mph - N/A   Clear
6:53 AM 77.0 °F - 75.0 °F 94% 29.90 in 10.0 mi SSE 6.9 mph - N/A   Clear
7:53 AM 78.1 °F - 75.0 °F 90% 29.91 in 10.0 mi SSE 5.8 mph - N/A   Scattered Clouds
8:53 AM 82.9 °F 90.2 °F 75.0 °F 77% 29.91 in 10.0 mi South 8.1 mph - N/A   Clear
9:53 AM 86.0 °F 93.0 °F 73.0 °F 65% 29.90 in 10.0 mi SSW 10.4 mph - N/A   Partly Cloudy
10:53 AM 88.0 °F 94.7 °F 72.0 °F 59% 29.90 in 10.0 mi SW 12.7 mph - N/A   Partly Cloudy
11:53 AM 89.1 °F 96.0 °F 72.0 °F 57% 29.91 in 10.0 mi SW 13.8 mph - N/A   Clear
12:53 PM 89.1 °F 98.0 °F 73.9 °F 61% 29.90 in 10.0 mi WSW 12.7 mph - N/A   Scattered Clouds
1:53 PM 89.1 °F 98.0 °F 73.9 °F 61% 29.89 in 10.0 mi SW 13.8 mph - N/A   Scattered Clouds
2:53 PM 90.0 °F 99.0 °F 73.9 °F 59% 29.88 in 10.0 mi SW 12.7 mph 20.7 mph N/A   Partly Cloudy
3:53 PM 88.0 °F 96.5 °F 73.9 °F 63% 29.87 in 10.0 mi WSW 16.1 mph - N/A   Scattered Clouds
4:53 PM 89.1 °F 99.1 °F 75.0 °F 63% 29.86 in 10.0 mi SW 16.1 mph - N/A   Partly Cloudy
5:53 PM 88.0 °F 95.6 °F 73.0 °F 61% 29.86 in 10.0 mi SW 12.7 mph - N/A   Partly Cloudy
6:53 PM 82.0 °F 86.7 °F 72.0 °F 71% 29.87 in 10.0 mi NW 15.0 mph 20.7 mph N/A   Mostly Cloudy
7:01 PM 80.6 °F 84.6 °F 71.6 °F 74% 29.87 in 10.0 mi NW 12.7 mph - N/A   Mostly Cloudy
7:53 PM 78.1 °F - 73.9 °F 87% 29.89 in 3.0 mi SW 10.4 mph - 0.07 in Rain , Thunderstorm Thunderstorms and Rain
8:28 PM 77.0 °F - 75.2 °F 94% 29.89 in 7.0 mi SW 3.5 mph - 0.03 in Rain Light Rain
8:53 PM 78.1 °F - 73.9 °F 87% 29.89 in 10.0 mi Calm Calm - 0.03 in   Partly Cloudy
9:53 PM 75.9 °F - 73.9 °F 94% 29.90 in 10.0 mi South 4.6 mph - N/A   Partly Cloudy
10:53 PM 75.9 °F - 73.9 °F 94% 29.90 in 10.0 mi ESE 5.8 mph - N/A   Clear
11:53 PM 75.9 °F - 73.9 °F 94% 29.90 in 10.0 mi SE 3.5 mph - N/A   Clear